www.pogodaiklimat.ru

Погода и климат >> Архив погоды >> Россия >> Камчатский край >> Пущино


ПОГОДА в Пущино

  • Прогноз погоды в Пущино
  • Монитор погоды в Пущино

АРХИВ ПОГОДЫ в Пущино

Время (UTC), дата Ветер
(напр.,м/с)
 
Видим.   Явления Облачность Т
(С)
Тd
(С)
f
(%)
Тe
(С)
Тes
(С)
Комфортность P
(гПа)
Po
(гПа)
Тmin
(С)
Tmax
(С)
R
(мм)
R24
(мм)
S
(см)
00 14.04 ЮВ 1 20 км 10/0
[Ci fib]
+2.7 -11.2 35 +2 +2 1017.3 980.0
03 14.04 ЮВ 1 20 км 10/0
[Ci fib]
+4.5 -12.4 28 +4 +4 1015.7 978.7
06 14.04 Ю 2 20 км 10/0
[Ci fib]
+5.3 -11.7 28 +4 +4 1015.6 978.7
09 14.04 ЮЗ 2 20 км 10/0
[Ci fib]
+1.1 -9.5 45 -2 -2 1016.2 978.7 +6.3
12 14.04 ЮЗ 5
{10}
20 км 10/0
[Ci fib]
-0.7 -7.1 62 -6 -6 1016.5 978.7
15 14.04 ЮЗ 4 20 км 10/0
[Ci fib]
-2.7 -7.0 72 -8 -8 1018.1 980.0
18 14.04 З 4
{10}
20 км 10/0
[Ci fib]
-4.4 -7.6 78 -11 -11 1018.3 980.0
21 14.04 ЮЗ 4
{10}
20 км 10/0
[Ci fib]
-3.5 -7.7 73 -9 -8 1017.4 979.2 -5.0 132
00 15.04 З 3 20 км 10/0
[Ci fib]
+0.8 -9.0 48 -3 -3 1018.9 981.3
03 15.04 Ю 2 20 км 10/0
[Cs]
+4.1 -9.6 36 +2 +2 1017.1 980.0
06 15.04 Ю 3 20 км 8/0
[Cc]
+4.4 -9.7 35 +2 +3 1017.1 980.0
09 15.04 ЮЗ 3 20 км 1/0
[Ci sp]
+1.3 -8.0 50 -2 -2 1018.9 981.3 +5.4
12 15.04 ЮЗ 4 20 км 10/0
[Ci fib]
-0.5 -8.0 57 -6 -6 1020.6 982.7
15 15.04 З 3 20 км 10/0
[Ci fib]
-3.0 -8.3 67 -8 -8 1022.3 984.0
18 15.04 З 1 20 км 1/0
[Ci fib]
-7.6 -10.0 83 -10 -10 1024.3 985.3
21 15.04 штиль 0 20 км 10/0
[Cs]
-3.1 -9.5 61 -4 -0 1022.7 984.3 -7.8 129
00 16.04 В 1 20 км 10/0
[Cs]
+1.1 -8.2 50 0 0 1023.0 985.3
03 16.04 В 2 20 км 10/0
[Cs]
+3.1 -8.0 44 +1 +1 1021.4 984.0
06 16.04 В 1 20 км 10/0
[Ac und]
+3.9 -7.8 42 +3 +3 1020.0 982.7
09 16.04 штиль 0 20 км 10/0
[Ac As]
+1.6 -5.8 58 +1 +1 1021.6 984.0 +5.0
12 16.04 С 1 20 км 10/0
[Ac As]
+1.0 -5.5 62 -0 -0 1021.7 984.0
15 16.04 С 3 20 км 10/0
[Ac As]
-0.3 -3.8 77 -5 -5 1020.5 982.7
18 16.04 С 2 20 км осадки на расстоянии 10/3 1000 м
[Cb cap Ac As]
-1.3 -3.6 84 -5 -5 1020.7 982.7
21 16.04 С 2 4000 м слаб. ливневой снег 10/10 630 м
[Cb cap]
-0.5 -3.5 80 -4 -4 1020.5 982.7 -1.5 0.0 128
00 17.04 С 3 4000 м осадки на расстоянии {ливн. осадки} 10/10 660 м
[Cb cap]
+1.0 -3.9 70 -3 -3 1018.9 981.2
03 17.04 СВ 3 10 км 10/10 1000 м
[Sc]
+3.3 -4.2 58 -0 -0 1018.6 981.3
06 17.04 С 3 10 км 10/5 1000 м
[Sc Ac trans Ci fib]
+3.1 -4.6 57 -0 -0 1017.2 980.0
09 17.04 СВ 2 10 км 10/8 600 м
[Sc Ac trans]
+1.2 -5.7 60 -2 -2 1018.9 981.3 +3.6 0.0
12 17.04 С 1 10 км 10/8 600 м
[Sc Ac trans]
-0.3 -6.5 63 -2 -2 1019.9 982.0
15 17.04 С 1 10 км 10/8 600 м
[Sc Ac trans]
-1.3 -7.4 63 -3 -3 1022.0 984.0
18 17.04 ЮВ 1 10 км 10/5 1000 м
[Sc Ac trans Ci fib]
-3.3 -6.4 79 -5 -5 1023.7 985.3
21 17.04 штиль 0 10 км 10/5 1000 м
[Sc Ac trans Ci fib]
+0.3 -6.8 59 -0 -0 1023.1 985.3 -4.0 126
00 18.04 В 2 20 км 10/0
[Ci fib]
+3.2 -8.2 43 +1 +1 1022.7 985.3
03 18.04 В 1 20 км 10/0
[Ci fib]
+5.2 -9.0 35 +5 +5 1022.5 985.3
06 18.04 штиль 0 20 км 10/0
[Ci fib]
+7.1 -9.3 30 +7 +7 1022.2 985.3
09 18.04 штиль 0 20 км 10/0
[Ci fib]
0.0 -5.8 65 -1 -1 1024.6 986.7 +8.7
12 18.04 З 3 20 км 10/0
[Ci fib]
+1.1 -5.8 60 -3 -3 1025.8 988.0
15 18.04 ЮЗ 3 20 км 10/0
[Ci fib]
-0.3 -5.9 66 -5 -5 1026.0 988.0
18 18.04 ЮЗ 3 20 км 1/0
[Ci fib]
-1.4 -6.4 69 -6 -6 1025.4 987.2
21 18.04 З 3 20 км 10/0
[Ci fib]
+0.3 -6.1 62 -4 -2 1025.8 987.8 -2.1 123
00 19.04 В 1 20 км 10/0
[Ci fib]
+5.5 -7.0 40 +5 +5 1026.6 989.3
03 19.04 В 2 20 км 10/0
[Ci fib]
+7.4 -8.2 32 +6 +6 1025.0 988.0
06 19.04 В 1 20 км 10/0
[Ci fib]
+8.7 -8.8 28 +9 +9 1024.8 988.0
09 19.04 З 2 20 км 3/0
[Ci fib]
+2.7 -6.4 51 0 0 1025.6 988.0 +9.8
12 19.04 ЮЗ 4 20 км ясно +2.2 -6.1 54 -2 -2 1027.0 989.3
15 19.04 ЮЗ 2 20 км ясно +0.5 -5.9 62 -3 -3 1027.3 989.3
18 19.04 ЮЗ 5 20 км ясно -0.6 -6.2 66 -6 -6 1027.4 989.3
21 19.04 ЮЗ 5 20 км ясно +0.5 -6.0 62 -5 -3 1027.1 989.1 -1.1 118
00 20.04 ЮЗ 4 20 км ясно +4.3 -6.6 45 +1 +8 1026.7 989.3
03 20.04 ЮЗ 4 20 км ясно +6.9 -7.1 36 +4 +12 1025.0 988.0
06 20.04 ЮЗ 3 20 км 1 балл +7.1 -6.3 38 +5 +8 1025.0 988.0
09 20.04 ЮЗ 5 20 км ясно +3.7 -5.8 50 -1 -1 1025.5 988.0 +7.7
12 20.04 ЮЗ 5 20 км ясно +1.7 -6.1 56 -3 -3 1025.8 988.0
15 20.04 ЮЗ 5 20 км ясно -0.2 -6.0 65 -6 -6 1026.0 988.0
18 20.04 ЮЗ 5 20 км ясно -1.6 -6.0 72 -8 -8 1026.2 988.0
21 20.04 ЮЗ 5 20 км ясно -0.5 -5.9 67 -6 -4 1024.8 986.7 -1.9 113

 

Местоположение метеостанции Пущино (Камчатский край, Россия): широта 54.18 долгота 158.00 высота над уровнем моря 303 м.

В архиве по умолчанию представлена погода в Пущино за последнюю неделю. Архивные данные за месяц целиком и за предыдущие месяцы, начиная с января 2011 года, Вы можете получить, выбрав интересующий диапазон дат из раскрывающегося списка и нажав кнопку "Ввод!".


*Определитесь, кто Вы:
робот инопланетянин человек

Внимание! Время в таблицах - всемирное. Для получения местного времени необходимо прибавить поправку, которая равна 12 ч.

Смотрите также архив погоды в соседних городах и на ближайших метеорологических станциях:

Погода в Мильково (Камчатский край, Россия) (64 км)
Погода в Начиках (Камчатский край, Россия) (120 км)
Погода в Долиновке (Камчатский край, Россия) (123 км)
Погода в Сосновке (Камчатский край, Россия) (124 км)
Погода в Семячике (Камчатский край, Россия) (124 км)
Погода в Петропавловск-Камч. 2 (Камчатский край, Россия) (127 км)
Погода в Соболево (Камчатский край, Россия) (137 км)
Погода в Петропавловск-Камчатском (Камчатский край, Россия) (151 км)
Погода в Петропавловском Маяке (Камчатский край, Россия) (152 км)
Погода в Большерецке (Камчатский край, Россия) (188 км)

Пояснения к столбцам:

Ветер - указаны скорость ветра в м/с - средняя за 10 мин, порывы в срок и между сроками (в фигурных скобках) и направление, откуда дует ветер: С - северный, СВ - северо-восточный, В - восточный, ЮВ - юго-восточный, Ю - южный, ЮЗ - юго-западный, З - западный, СЗ - северо-западный.
Видимость - горизонтальная дальность видимости в метрах или километрах. При видимости от 1 до 10 км при отсутствии осадков обычно наблюдается дымка, при ухудшении видимости до 1 км и менее - туман. В сухую погоду видимость может ухудшаться дымом, пылью или мглою.
Явления - указаны атмосферные явления, наблюдавшиеся в срок или в последний час перед сроком; фигурными скобками обозначены явления, наблюдавшиеся между сроками (за 1-3 часа до срока); квадратными скобками обозначены град или гололедные отложения с указанием их диаметра в мм.
Облачность - указаны через наклонную черту общая и нижняя облачность в баллах и высота нижней границы облаков в метрах; квадратными скобками обозначены формы облаков: Ci - перистые, Cs - перисто-слоистые, Cc - перисто-кучевые, Ac - высококучевые, As - высокослоистые, Sc - слоисто-кучевые, Ns - слоисто-дождевые, Cu - кучевые, Cb - кучево-дождевые. Подробнее классификацию облаков см. в Атласе облаков (PDF).
T - Температура воздуха - температура, измеренная на высоте 2 м над землей.
Td - Температура точки росы - температура, при понижении до которой содержащийся в воздухе водяной пар достигнет насыщения.
f - Относительная влажность воздуха - влажноcть воздуха, измеренная на высоте 2 м над землей.
Te - Эффективная температура - температура, которую ощущает одетый по сезону человек в тени. Характеристика душности погоды. При расчете учитывается влияние влажности воздуха и скорости ветра на теплоощущения человека.
Tes - Эффективная температура на солнце - температура, которую ощущает человек, с поправкой на солнечный нагрев. Характеристика знойности погоды. Зависит от высоты солнца над горизонтом, облачности и скорости ветра. Ночью, в пасмурную погоду, а также при ветре 12 м/с и более поправка равна нулю.
P - Атмосферное давление - приведенное к уровню моря атмосферное давление.
Po - Атмосферное давление - измеренное на уровне метеостанции атмосферное давление.
Tmin - Минимальная температура - минимум температуры воздуха на высоте 2 м над землей.
Tmax - Максимальная температура - максимум температуры воздуха на высоте 2 м над землей.
R - Количество осадков - Количество выпавших осадков за период времени, мм. При наведении курсора мыши на число - период времени, за который выпало указанное количество осадков.
R24 - Количество осадков - Количество выпавших осадков за 24 часа, мм.
S - Снежный покров - Высота снежного покрова, см. При наведении курсора мыши на число - состояние снежного покрова и степень покрытия местности в баллах.